Weather History for Peterborough, ON

Change the Weather History Date:

Thursday, May 9, 2013

  Actual Average Record
Temperature  
Mean Temperature 30 °F -  
Max Temperature 64 °F 66 °F 77 °F (2007)
Min Temperature -5 °F 44 °F -5 °F (2013)
Degree Days  
Heating Degree Days 36    
Moisture  
Dew Point 52 °F    
Average Humidity 78    
Maximum Humidity 100    
Minimum Humidity 57    
Precipitation  
Precipitation 0.00 in 0.09 in - ()
Sea Level Pressure  
Sea Level Pressure 29.92 in    
Wind  
Wind Speed 6 mph ()    
Max Wind Speed 20 mph    
Max Gust Speed 18 mph    
Visibility 9.0 miles    
Events Rain , Thunderstorm    
Averages and records for this station are not official NWS values.
T = Trace of Precipitation, MM = Missing Value Source: Averaged Metar Reports

Daily Weather History Graph

Daily Weather History Graph

Search for Another Location

Airport:

Trip Planner

Search our weather history database for the weather conditions in past years. The results will help you decide how hot, cold, wet, or windy it might be!

Date:

Astronomy

May. 09, 2013 Rise Set
Actual Time 5:53 AM EDT 8:27 PM EDT
Civil Twilight 5:20 AM EDT 8:59 PM EDT
Nautical Twilight 4:39 AM EDT 9:41 PM EDT
Astronomical Twilight 3:52 AM EDT 10:28 PM EDT
Moon 5:38 AM EDT (5/9) 8:20 PM EDT (5/9)
Length of Visible Light 15h 39m
Length of Day
14h 33m
Waning Crescent, 0% of the Moon is Illuminated
May 9
Waning Crescent
May 9
New
May 18
First Quarter
May 25
Full
May 31
Last Quarter

Hourly Weather History & Observations

Time (EDT) Temp. Dew Point Humidity Pressure Visibility Wind Dir Wind Speed Gust Speed Precip Events Conditions
12:00 AM 60.8 °F 59.0 °F 94% 29.96 in 9.0 mi Variable 2.3 mph - N/A   Overcast
1:00 AM 57.2 °F 57.2 °F 100% 29.94 in 9.0 mi WNW 2.3 mph - N/A   Overcast
2:00 AM -2 °F -8 °F 66% 30.03 in - West 19.6 mph - -  
2:00 AM 59.0 °F 57.2 °F 94% 29.93 in 9.0 mi Variable 2.3 mph - N/A   Overcast
3:00 AM 57.2 °F 55.4 °F 94% 29.91 in 9.0 mi NW 3.5 mph - N/A   Overcast
3:49 AM 59.0 °F 57.2 °F 94% 29.91 in 9.0 mi East 3.5 mph - N/A Rain Light Rain
4:01 AM 59.0 °F 57.2 °F 94% 29.91 in 9.0 mi NE 3.5 mph - N/A   Overcast
5:00 AM 59.0 °F 57.2 °F 94% 29.90 in 9.0 mi North 3.5 mph - N/A   Overcast
6:00 AM 59.0 °F 57.2 °F 94% 29.90 in 9.0 mi Variable 2.3 mph - N/A   Overcast
7:00 AM 59.0 °F 59.0 °F 100% 29.91 in 9.0 mi Calm Calm - N/A   Overcast
8:00 AM -3 °F -8 °F 67% 30.03 in - South 4.6 mph - -  
8:00 AM 60.8 °F 59.0 °F 94% 29.92 in 9.0 mi NE 5.8 mph - N/A   Overcast
9:00 AM 62.6 °F 57.2 °F 82% 29.93 in 9.0 mi NNE 3.5 mph - N/A   Overcast
10:00 AM 64.4 °F 57.2 °F 77% 29.92 in 9.0 mi NNE 4.6 mph - N/A   Overcast
11:00 AM 68.0 °F 57.2 °F 68% 29.92 in 9.0 mi ENE 6.9 mph - N/A   Mostly Cloudy
12:00 PM 68.0 °F 57.2 °F 68% 29.92 in 9.0 mi NNE 5.8 mph - N/A   Overcast
1:00 PM 71.6 °F 55.4 °F 57% 29.90 in 9.0 mi Variable 3.5 mph - N/A   Scattered Clouds
1:57 PM 71.6 °F 57.2 °F 60% 29.90 in 9.0 mi West 8.1 mph - N/A Thunderstorm Scattered Clouds
2:00 PM 2 °F -3 °F 70% 29.96 in - West 19.6 mph - -  
2:00 PM 71.6 °F 55.4 °F 57% 29.90 in 9.0 mi NW 8.1 mph - N/A Thunderstorm Scattered Clouds
2:17 PM 68.0 °F 59.0 °F 73% 29.91 in 9.0 mi NNE 9.2 mph - N/A Rain , Thunderstorm Light Rain
2:25 PM 68.0 °F 60.8 °F 78% 29.91 in 9.0 mi ESE 6.9 mph 18.4 mph N/A Rain Light Rain
2:34 PM 68.0 °F 60.8 °F 78% 29.91 in 9.0 mi SE 12.7 mph - N/A   Mostly Cloudy
2:35 PM 68.0 °F 60.8 °F 78% 29.91 in 9.0 mi SSE 13.8 mph - N/A Thunderstorm Mostly Cloudy
2:51 PM 68.0 °F 60.8 °F 78% 29.91 in 9.0 mi SSE 8.1 mph - N/A   Mostly Cloudy
3:00 PM 68.0 °F 59.0 °F 73% 29.91 in 9.0 mi SE 6.9 mph - N/A   Mostly Cloudy
3:01 PM 68.0 °F 59.0 °F 73% 29.91 in 9.0 mi SE 6.9 mph - N/A Thunderstorm Mostly Cloudy
3:17 PM 68.0 °F 59.0 °F 73% 29.91 in 9.0 mi ESE 6.9 mph - N/A   Mostly Cloudy
4:00 PM 69.8 °F 59.0 °F 68% 29.91 in 9.0 mi SSW 8.1 mph - N/A   Mostly Cloudy
4:32 PM 68.0 °F 59.0 °F 73% 29.91 in 9.0 mi South 6.9 mph - N/A Rain Light Rain
4:43 PM 68.0 °F 59.0 °F 73% 29.91 in 9.0 mi South 6.9 mph - N/A   Overcast
4:53 PM 68.0 °F 59.0 °F 73% 29.90 in 9.0 mi South 5.8 mph - N/A Thunderstorm Overcast
5:00 PM 68.0 °F 59.0 °F 73% 29.90 in 9.0 mi South 6.9 mph - N/A Thunderstorm Mostly Cloudy
5:06 PM 68.0 °F 57.2 °F 68% 29.90 in 9.0 mi South 5.8 mph - N/A Thunderstorm Thunderstorm
5:22 PM 69.8 °F 59.0 °F 68% 29.90 in 9.0 mi ESE 6.9 mph - N/A   Scattered Clouds
6:00 PM 69.8 °F 60.8 °F 73% 29.90 in 9.0 mi SSE 8.1 mph - N/A   Scattered Clouds
7:00 PM 68.0 °F 59.0 °F 73% 29.90 in 9.0 mi South 8.1 mph - N/A   Clear
8:00 PM 4 °F -0 °F 73% 29.92 in - WSW 12.7 mph - -  
8:00 PM 64.4 °F 60.8 °F 88% 29.91 in 9.0 mi SE 5.8 mph - N/A   Clear
9:00 PM 62.6 °F 57.2 °F 82% 29.92 in 9.0 mi SSW 3.5 mph - N/A   Scattered Clouds
10:00 PM 59.0 °F 55.4 °F 88% 29.94 in 9.0 mi SSW 4.6 mph - N/A   Mostly Cloudy
11:00 PM 60.8 °F 55.4 °F 82% 29.95 in 9.0 mi SSW 4.6 mph - N/A   Overcast